Preview of NWS' New Version of Forecast
This preview is not operational and should not be used for support decisions.

Regional Weather Roundup (RWR)

Issued by National Weather Service (NWS)

                            
000
ASPQ40 PGUM 170810
RWRPQ 
WEATHER ROUNDUP FOR THE MARIANAS AND MICRONESIA
NATIONAL WEATHER SERVICE TIYAN GU
600 PM CHST WED APR 17 2019

GUZ001>004-170900-
MARIANA ISLANDS-
  
CITY           SKY/WX    TMP DP  RH WIND       PRES   REMARKS
GUAM AIRPORT   CLEAR     82  70  65 E12       29.88R                  
ANDERSEN AFB   PTCLDY    81  70  69 E14       29.88R                  
ROTA AIRPORT   PTCLDY    81  73  78 E16       29.87R                  
TINIAN AP      PTCLDY    84  70  61 E15       29.87R                  
SAIPAN AP      PTCLDY    82  70  65 E14       29.88R                  

$$

PMZ161-170900-
REPUBLIC OF PALAU-
  
CITY           SKY/WX    TMP DP  RH WIND       PRES   REMARKS
KOROR AP       NOT AVBL                                               
KOROR WSO      NOT AVBL                                               

$$

PMZ171>174-170900-
FEDERATED STATES OF MICRONESIA-
  
CITY           SKY/WX    TMP DP  RH WIND       PRES   REMARKS
YAP AIRPORT    PTSUNNY   84  79  84 VRB7      29.82F HX  96           
CHUUK AP       MOCLDY    84  79  84 NE7       29.81R HX  96           
POHNPEI AP     CLOUDY    81  75  83 SE9       29.83R                  
POHNPEI WSO    CLOUDY    81  72  74 E8        29.86R                  
KOSRAE AP      NOT AVBL                                               

$$

PMZ181-170900-
REPUBLIC OF THE MARSHALL ISLANDS-
  
CITY           SKY/WX    TMP DP  RH WIND       PRES   REMARKS
KWAJALEIN AP   NOT AVBL                                               
MAJURO AP      LGT RAIN  82  75  78 NE13      29.86R                  
MAJURO WSO     LGT RAIN  79  75  89 E8        29.84R                  

$$